Regional Weather Roundup
Issued by NWS

Home | Current Version | Previous Version | Text Only | Print | Product List | Glossary Off
Versions: 1 2 3 4 5 6 7 8 9 10 11 12 13 14 15 16 17 18 19 20 21 22 23 24 25 26 27 28 29 30 31 32 33 34 35 36 37 38 39 40 41 42 43 44 45 46 47 48 49 50

000
ASUS43 KIND 251059
RWRIN

WEATHER ROUNDUP FOR INDIANA
NATIONAL WEATHER SERVICE INDIANAPOLIS IN
600 AM EST SUN FEB 25 2018

NOTE: "FAIR" INDICATES FEW OR NO CLOUDS BELOW 12,000 FEET WITH NO
SIGNIFICANT WEATHER AND/OR OBSTRUCTIONS TO VISIBILITY.

* - STATION DOES NOT REPORT WEATHER SUCH AS PRECIPITATION OR FOG.

+ - STATION NOT QUALITY CONTROLLED BY THE NATIONAL WEATHER SERVICE.
    USE DATA WITH CAUTION...ESPECIALLY DEWPOINT AND RELATIVE
    HUMIDITY OBSERVATIONS.

INZ001>003-010>013-019-020-251200-
NORTHWEST INDIANA

CITY           SKY/WX    TMP DP  RH WIND       PRES   REMARKS
GARY /AIRPORT/ CLOUDY    36  28  75 W32G45    29.75R WCI  22
MONTICELLO +   CLOUDY    37  30  78 W24G32    29.82R WCI  25

$$

LMZ046-743>745-251200-
SOUTHERN LAKE MICHIGAN

STATION/POSITION TIME  TEMP    WIND        PRES    WAVE
                       AIR SEA DIR/SP/G            HT
                 (UTC) (F)     (DEG/KT/KT) (MB)    (FT)
BURNS HARBOR     1040   36     250/ 31/ 37 1007.5R
MICHIGAN CITY    1030   35     230/ 34/ 39   N/A

$$

INZ004-005-014>016-021>024-251200-
NORTH CENTRAL INDIANA

CITY           SKY/WX    TMP DP  RH WIND       PRES   REMARKS
GOSHEN         CLOUDY    37  31  78 W17G29    29.72R WCI  27
PERU/GRISSOM   CLOUDY    38  36  94 SW23G30   29.80R WCI  27
SOUTH BEND     CLOUDY    36  29  75 W22G29    29.72R WCI  25
WARSAW +       CLOUDY    36  32  87 E16G24    29.74R WCI  26

$$

INZ006>009-017-018-025>027-251200-
NORTHEAST INDIANA

CITY           SKY/WX    TMP DP  RH WIND       PRES   REMARKS
AUBURN +       CLOUDY    41  34  75 W21G30    29.72R
FORT WAYNE     CLOUDY    42  35  76 W32G44    29.74R
KENDALLVILLE + CLOUDY    40  37  89 W31G38    29.68R WCI  28

$$

INZ028-029-035-036-043>045-051>053-251200-
WEST CENTRAL INDIANA

CITY           SKY/WX    TMP DP  RH WIND       PRES   REMARKS
LAFAYETTE      CLOUDY    37  30  75 W16G29    29.86R WCI  28
TERRE HAUTE    CLOUDY    39  32  76 W12G23    29.93R WCI  32

$$

INZ030>032-037>040-046>048-054>057-064-065-251200-
CENTRAL INDIANA

CITY           SKY/WX    TMP DP  RH WIND       PRES   REMARKS
GREENWOOD *+   CLOUDY    41 -47   2 W15G23    29.87R
INDIANAPOLIS   MOCLDY    40  34  79 W18       29.88R WCI  31
-EAGLE CREEK   CLOUDY    42  34  73 W13G23    29.86R
KOKOMO +       CLOUDY    39  33  79 W29       29.83R WCI  27
MT COMFORT *+  MOCLDY    41  39  93 W17G29    29.87R
SHELBYVILLE    CLOUDY    45  37  73 W13       29.86R

$$

INZ033-034-041-042-049-050-058-059-251200-
EAST CENTRAL INDIANA

CITY           SKY/WX    TMP DP  RH WIND       PRES   REMARKS
MUNCIE         CLOUDY    45  37  73 W20G35    29.82R
RICHMOND +     MOCLDY    45  41  87 W23G31    29.82R

$$

INZ060-061-067>069-081>083-085>088-251200-
SOUTHWEST INDIANA

CITY           SKY/WX    TMP DP  RH WIND       PRES   REMARKS
EVANSVILLE     FAIR      44  37  76 NW9       29.97R
HUNTINGBURG +  FAIR      43  35  73 W17       29.96R

$$

INZ062-063-066-070>080-084-089>092-251200-
SOUTH CENTRAL AND SOUTHEAST INDIANA

CITY           SKY/WX    TMP DP  RH WIND       PRES   REMARKS
BLOOMINGTON    FAIR      42  34  73 W13G24    29.90R
MADISON *+     MOCLDY    50  41  71 W13G25    29.90R
SEYMOUR +      FAIR      46  37  71 W18G24    29.90R

$$




USA.gov is the U.S. government's official web portal to all federal, state and local government web resources and services.